When you browse on this site, cookies collect data to enhance your experience and personalize the content and advertising you see.
Visit our Privacy Policy to learn more. By continuing to use the site, you agree to this use of cookies and data.
  • In Slovakia
  • List of Countries
  • For 7 days
  • Water Temperature
  • Weather Map
  • Weather Widgets
  • user-avatar
    Login

    Hourly Weather Hua Hin

    Today, 14 October, Monday

    Time Temperature Precipitation Wind Pressure Humidity
    00:00 +28°C° 0.1 mm 2 mps 746 mmHg 82%
    01:00 +27°C° 0 mm 1 mps 746 mmHg 81%
    02:00 +27°C° 0.2 mm 1 mps 746 mmHg 82%
    03:00 +27°C° 0.2 mm 1 mps 745 mmHg 82%
    04:00 +27°C° 0.2 mm 1 mps 745 mmHg 83%
    05:00 +27°C° 0.1 mm 1 mps 745 mmHg 83%
    06:00 +27°C° 0.1 mm 1 mps 746 mmHg 82%
    07:00 +28°C° 0 mm 1 mps 747 mmHg 79%
    08:00 +29°C° 0.2 mm 1 mps 747 mmHg 75%
    09:00 +30°C° 0.2 mm 1 mps 747 mmHg 71%
    10:00 +31°C° 0.2 mm 1 mps 748 mmHg 66%
    11:00 +31°C° 0 mm 2 mps 747 mmHg 66%
    12:00 +31°C° 0 mm 2 mps 747 mmHg 65%
    13:00 +31°C° 0 mm 3 mps 746 mmHg 64%
    14:00 +31°C° 0 mm 2 mps 745 mmHg 64%
    15:00 +31°C° 0 mm 2 mps 745 mmHg 64%
    16:00 +31°C° 0 mm 2 mps 744 mmHg 64%
    17:00 +30°C° 0 mm 1 mps 745 mmHg 67%
    18:00 +29°C° 0 mm 1 mps 745 mmHg 70%
    19:00 +26°C° 0 mm 0 mps 745 mmHg 73%
    20:00 +26°C° 0 mm 0 mps 746 mmHg 74%
    21:00 +28°C° 0 mm 1 mps 747 mmHg 75%
    22:00 +28°C° 0 mm 1 mps 747 mmHg 76%
    23:00 +28°C° 0.2 mm 2 mps 747 mmHg 79%

    Tomorrow, 15 October, Tuesday

    Time Temperature Precipitation Wind Pressure Humidity
    00:00 +27°C° 0.2 mm 2 mps 747 mmHg 81%
    01:00 +27°C° 0.2 mm 3 mps 746 mmHg 83%
    02:00 +27°C° 0.2 mm 3 mps 746 mmHg 85%
    03:00 +26°C° 0.2 mm 3 mps 746 mmHg 86%
    04:00 +26°C° 0.2 mm 3 mps 745 mmHg 87%
    05:00 +26°C° 0.2 mm 3 mps 746 mmHg 87%
    06:00 +27°C° 0.2 mm 4 mps 746 mmHg 87%
    07:00 +27°C° 0.2 mm 4 mps 746 mmHg 87%
    08:00 +28°C° 0.1 mm 4 mps 747 mmHg 81%
    09:00 +29°C° 0.1 mm 5 mps 747 mmHg 76%
    10:00 +30°C° 0.1 mm 6 mps 748 mmHg 71%
    11:00 +32°C° 0 mm 5 mps 747 mmHg 69%
    12:00 +32°C° 0 mm 5 mps 746 mmHg 68%
    13:00 +32°C° 0 mm 4 mps 746 mmHg 66%
    14:00 +32°C° 0 mm 4 mps 745 mmHg 66%
    15:00 +32°C° 0 mm 4 mps 745 mmHg 67%
    16:00 +31°C° 0 mm 3 mps 744 mmHg 67%
    17:00 +30°C° 0 mm 3 mps 745 mmHg 70%
    18:00 +29°C° 0 mm 2 mps 745 mmHg 73%
    19:00 +28°C° 0 mm 2 mps 745 mmHg 75%
    20:00 +28°C° 0.6 mm 2 mps 746 mmHg 77%
    21:00 +28°C° 0.6 mm 3 mps 746 mmHg 79%
    22:00 +28°C° 0.6 mm 3 mps 747 mmHg 80%
    23:00 +27°C° 0.2 mm 3 mps 747 mmHg 81%

    Day after tomorrow, 16 October, Wednesday

    Time Temperature Precipitation Wind Pressure Humidity
    00:00 +27°C° 0.2 mm 3 mps 746 mmHg 82%
    01:00 +27°C° 0.2 mm 2 mps 746 mmHg 83%
    02:00 +27°C° 0.3 mm 3 mps 746 mmHg 85%
    03:00 +26°C° 0.3 mm 3 mps 745 mmHg 86%
    04:00 +26°C° 0.3 mm 3 mps 745 mmHg 87%
    05:00 +26°C° 0.9 mm 3 mps 746 mmHg 87%
    06:00 +26°C° 0.9 mm 3 mps 746 mmHg 87%
    07:00 +27°C° 0.9 mm 4 mps 747 mmHg 87%
    08:00 +28°C° 1.2 mm 4 mps 747 mmHg 83%
    09:00 +29°C° 1.2 mm 4 mps 747 mmHg 79%
    10:00 +30°C° 1.2 mm 4 mps 747 mmHg 76%
    11:00 +30°C° 0.3 mm 4 mps 747 mmHg 73%
    12:00 +32°C° 0.3 mm 4 mps 746 mmHg 71%
    13:00 +32°C° 0.3 mm 4 mps 745 mmHg 68%
    14:00 +32°C° 0 mm 4 mps 745 mmHg 68%
    15:00 +31°C° 0 mm 3 mps 744 mmHg 68%
    16:00 +31°C° 0 mm 3 mps 744 mmHg 68%
    17:00 +30°C° 0.2 mm 2 mps 744 mmHg 70%
    18:00 +29°C° 0.2 mm 1 mps 745 mmHg 73%
    19:00 +29°C° 0.2 mm 1 mps 745 mmHg 75%
    20:00 +28°C° 0.9 mm 1 mps 746 mmHg 77%
    21:00 +28°C° 0.9 mm 2 mps 746 mmHg 80%
    22:00 +28°C° 0.9 mm 3 mps 746 mmHg 82%
    23:00 +28°C° 0.7 mm 3 mps 746 mmHg 82%

    17 October, Thursday

    Time Temperature Precipitation Wind Pressure Humidity
    00:00 +27°C° 0.7 mm 3 mps 746 mmHg 82%
    01:00 +27°C° 0.7 mm 3 mps 746 mmHg 82%
    02:00 +27°C° 0.2 mm 3 mps 746 mmHg 83%
    03:00 +27°C° 0.2 mm 3 mps 745 mmHg 83%
    04:00 +27°C° 0.2 mm 3 mps 745 mmHg 84%
    05:00 +27°C° 0.2 mm 3 mps 746 mmHg 85%
    06:00 +27°C° 0.2 mm 4 mps 746 mmHg 86%
    07:00 +27°C° 0.2 mm 4 mps 746 mmHg 87%
    08:00 +28°C° 0.4 mm 4 mps 747 mmHg 83%
    09:00 +29°C° 0.4 mm 4 mps 747 mmHg 79%
    10:00 +30°C° 0.4 mm 5 mps 747 mmHg 76%
    11:00 +30°C° 0.9 mm 5 mps 747 mmHg 75%
    12:00 +30°C° 0.9 mm 4 mps 746 mmHg 75%
    13:00 +30°C° 0.9 mm 4 mps 745 mmHg 75%
    14:00 +30°C° 0.1 mm 4 mps 745 mmHg 74%
    15:00 +31°C° 0.1 mm 3 mps 744 mmHg 73%
    16:00 +31°C° 0.1 mm 3 mps 744 mmHg 71%
    17:00 +30°C° 0.1 mm 3 mps 744 mmHg 74%
    18:00 +29°C° 0.1 mm 2 mps 745 mmHg 76%
    19:00 +29°C° 0.1 mm 2 mps 745 mmHg 79%
    20:00 +28°C° 0.3 mm 2 mps 745 mmHg 80%
    21:00 +28°C° 0.3 mm 3 mps 746 mmHg 81%
    22:00 +28°C° 0.3 mm 3 mps 747 mmHg 83%
    23:00 +28°C° 0.5 mm 3 mps 746 mmHg 83%

    18 October, Friday

    Time Temperature Precipitation Wind Pressure Humidity
    00:00 +27°C° 0.5 mm 3 mps 746 mmHg 83%
    01:00 +27°C° 0.5 mm 2 mps 746 mmHg 84%
    02:00 +27°C° 0.6 mm 2 mps 745 mmHg 84%
    03:00 +27°C° 0.6 mm 3 mps 745 mmHg 85%
    04:00 +27°C° 0.6 mm 3 mps 745 mmHg 85%
    05:00 +27°C° 0.8 mm 3 mps 745 mmHg 86%
    06:00 +27°C° 0.8 mm 4 mps 746 mmHg 86%
    07:00 +27°C° 0.8 mm 4 mps 746 mmHg 87%
    08:00 +28°C° 0.5 mm 4 mps 746 mmHg 83%
    09:00 +29°C° 0.5 mm 5 mps 747 mmHg 80%
    10:00 +30°C° 0.5 mm 5 mps 747 mmHg 77%
    11:00 +30°C° 0.5 mm 5 mps 746 mmHg 76%
    12:00 +30°C° 0.5 mm 5 mps 746 mmHg 74%
    13:00 +32°C° 0.5 mm 5 mps 745 mmHg 73%
    14:00 +32°C° 0.2 mm 4 mps 745 mmHg 73%
    15:00 +30°C° 0.2 mm 4 mps 745 mmHg 73%
    16:00 +30°C° 0.2 mm 3 mps 744 mmHg 72%
    17:00 +30°C° 0.1 mm 3 mps 745 mmHg 75%
    18:00 +29°C° 0.1 mm 2 mps 745 mmHg 77%
    19:00 +28°C° 0.1 mm 2 mps 745 mmHg 79%
    20:00 +28°C° 0.3 mm 2 mps 746 mmHg 81%
    21:00 +28°C° 0.3 mm 3 mps 746 mmHg 82%
    22:00 +28°C° 0.3 mm 3 mps 747 mmHg 84%
    23:00 +27°C° 0.2 mm 3 mps 747 mmHg 84%

    19 October, Saturday

    Time Temperature Precipitation Wind Pressure Humidity
    00:00 +27°C° 0.2 mm 3 mps 746 mmHg 85%
    01:00 +27°C° 0.2 mm 2 mps 746 mmHg 86%
    02:00 +27°C° 0.9 mm 2 mps 746 mmHg 86%
    03:00 +26°C° 0.9 mm 2 mps 746 mmHg 87%
    04:00 +26°C° 0.9 mm 2 mps 745 mmHg 88%
    05:00 +26°C° 0.6 mm 3 mps 746 mmHg 88%
    06:00 +26°C° 0.6 mm 3 mps 746 mmHg 87%
    07:00 +27°C° 0.6 mm 4 mps 746 mmHg 87%
    08:00 +28°C° 0.3 mm 4 mps 747 mmHg 83%
    09:00 +29°C° 0.3 mm 5 mps 747 mmHg 78%
    10:00 +30°C° 0.3 mm 5 mps 748 mmHg 74%
    11:00 +30°C° 0.4 mm 5 mps 747 mmHg 73%
    12:00 +30°C° 0.4 mm 5 mps 746 mmHg 72%
    13:00 +32°C° 0.4 mm 5 mps 746 mmHg 71%
    14:00 +32°C° 0.3 mm 4 mps 745 mmHg 71%
    15:00 +30°C° 0.3 mm 4 mps 745 mmHg 71%
    16:00 +30°C° 0.3 mm 3 mps 744 mmHg 71%
    17:00 +30°C° 0.7 mm 3 mps 745 mmHg 74%
    18:00 +29°C° 0.7 mm 3 mps 745 mmHg 77%
    19:00 +28°C° 0.7 mm 3 mps 745 mmHg 81%
    20:00 +28°C° 0.4 mm 3 mps 746 mmHg 82%
    21:00 +27°C° 0.4 mm 3 mps 746 mmHg 83%
    22:00 +27°C° 0.4 mm 3 mps 747 mmHg 83%
    23:00 +27°C° 0.4 mm 2 mps 746 mmHg 84%
    Show more